CFG6CE LEPA-EDDL

Flight info

Callsign CFG6CE
Flight time 1h 55m
Altitude 36000
Route MEROS N853 LUMAS DCT MAXIR DCT LUSOL DCT BODRU DCT OKTET DCT IRMAR DCT KINES DCT VANAS DCT MOBLO DCT UBIMA DCT GILIR DCT PENDU DCT IXILU DCT EPL DCT ROUSY DCT DIK/N0447F370 N853 ARCKY T853 NVO T857 BIKMU BIKMU1A
Aircraft A321/M-SDE3FGHIRWY/LB1

Departure

Time 2026-05-04 16:10
Airport Palma de Mallorca Airport (LEPA)

Arrival

Time 2026-05-04 18:05
Airport Düsseldorf Airport (EDDL)
Time Latitude Longitude Altitude Speed Heading
2026-05-04 15:30 39.54798 2.73595 37 ft 0 kts 58°
2026-05-04 15:51 39.54798 2.73594 38 ft 1 kts 58°
2026-05-04 15:51 39.54784 2.73569 36 ft 4 kts 53°
2026-05-04 15:51 39.54773 2.73547 36 ft 4 kts 82°
2026-05-04 15:52 39.54780 2.73523 34 ft 4 kts 148°
2026-05-04 15:52 39.54802 2.73506 38 ft 4 kts 149°
2026-05-04 15:52 39.54810 2.73500 36 ft 0 kts 149°
2026-05-04 16:00 39.54803 2.73505 38 ft 6 kts 149°
2026-05-04 16:01 39.54749 2.73547 38 ft 10 kts 149°
2026-05-04 16:01 39.54693 2.73590 38 ft 9 kts 149°
2026-05-04 16:01 39.54658 2.73651 38 ft 10 kts 89°
2026-05-04 16:01 39.54695 2.73750 38 ft 13 kts 59°
2026-05-04 16:02 39.54737 2.73842 38 ft 11 kts 59°
2026-05-04 16:02 39.54778 2.73922 38 ft 11 kts 57°
2026-05-04 16:02 39.54919 2.73966 38 ft 10 kts 17°
2026-05-04 16:03 39.54974 2.74006 38 ft 9 kts 354°
2026-05-04 16:03 39.55058 2.73944 38 ft 20 kts 328°
2026-05-04 16:03 39.55180 2.73847 38 ft 20 kts 328°
2026-05-04 16:03 39.55299 2.73753 38 ft 19 kts 328°
2026-05-04 16:04 39.55413 2.73665 38 ft 19 kts 329°
2026-05-04 16:04 39.55624 2.73510 38 ft 16 kts 351°
2026-05-04 16:04 39.55697 2.73591 37 ft 14 kts 59°
2026-05-04 16:05 39.55746 2.73694 38 ft 13 kts 58°
2026-05-04 16:05 39.55789 2.73786 38 ft 12 kts 58°
2026-05-04 16:05 39.55865 2.73944 38 ft 9 kts 58°
2026-05-04 16:06 39.55905 2.74031 38 ft 16 kts 59°
2026-05-04 16:06 39.56049 2.74336 38 ft 13 kts 58°
2026-05-04 16:07 39.56127 2.74447 38 ft 7 kts 19°
2026-05-04 16:07 39.56259 2.74354 38 ft 7 kts 283°
2026-05-04 16:08 39.56250 2.74319 38 ft 0 kts 242°
2026-05-04 16:09 39.56177 2.74155 37 ft 55 kts 238°
2026-05-04 16:09 39.55373 2.72458 40 ft 158 kts 238°
2026-05-04 16:10 39.54172 2.69922 1160 ft 165 kts 234°
2026-05-04 16:11 39.52141 2.65582 2279 ft 210 kts 238°
2026-05-04 16:11 39.51395 2.63993 3144 ft 203 kts 238°
2026-05-04 16:12 39.48518 2.59854 4752 ft 241 kts 207°
2026-05-04 16:12 39.43414 2.58865 6876 ft 272 kts 159°
2026-05-04 16:13 39.41197 2.62933 8238 ft 305 kts 98°
2026-05-04 16:13 39.41364 2.68515 9708 ft 315 kts 90°
2026-05-04 16:14 39.41544 2.74404 10413 ft 349 kts 90°
2026-05-04 16:14 39.41704 2.81081 10844 ft 386 kts 90°
2026-05-04 16:15 39.41967 2.91648 12742 ft 398 kts 90°
2026-05-04 16:16 39.42141 2.98862 14032 ft 405 kts 90°
2026-05-04 16:16 39.42388 3.09985 15627 ft 418 kts 90°
2026-05-04 16:17 39.42552 3.17564 16654 ft 427 kts 90°
2026-05-04 16:18 39.44343 3.28976 18110 ft 442 kts 63°
2026-05-04 16:18 39.45861 3.32452 18537 ft 446 kts 58°
2026-05-04 16:19 39.50681 3.42890 19754 ft 458 kts 58°
2026-05-04 16:19 39.53957 3.50050 20582 ft 465 kts 58°
2026-05-04 16:20 39.58959 3.61018 21785 ft 477 kts 59°
2026-05-04 16:20 39.62364 3.68493 22568 ft 485 kts 59°
2026-05-04 16:21 39.67578 3.79936 23655 ft 497 kts 59°
2026-05-04 16:22 39.71085 3.87662 24322 ft 502 kts 59°
2026-05-04 16:22 39.76433 3.99495 25388 ft 509 kts 60°
2026-05-04 16:23 39.81873 4.11448 26347 ft 516 kts 56°
2026-05-04 16:24 39.93065 4.22752 27511 ft 514 kts 15°
2026-05-04 16:25 39.99995 4.24838 28049 ft 513 kts
2026-05-04 16:26 40.14178 4.28143 29265 ft 519 kts
2026-05-04 16:26 40.24823 4.30669 30217 ft 522 kts
2026-05-04 16:27 40.31960 4.32367 30907 ft 520 kts
2026-05-04 16:28 40.42575 4.34889 32112 ft 515 kts
2026-05-04 16:28 40.53121 4.37407 33263 ft 513 kts
2026-05-04 16:29 40.67106 4.40756 34642 ft 508 kts
2026-05-04 16:30 40.77479 4.43246 35601 ft 502 kts
2026-05-04 16:31 40.84320 4.44880 35942 ft 500 kts
2026-05-04 16:32 41.03617 4.49561 35935 ft 497 kts
2026-05-04 16:33 41.17264 4.52880 35927 ft 498 kts
2026-05-04 16:34 41.27468 4.55365 35945 ft 498 kts
2026-05-04 16:35 41.47932 4.60386 35945 ft 498 kts
2026-05-04 16:36 41.58146 4.62906 35949 ft 498 kts
2026-05-04 16:37 41.66925 4.65082 35937 ft 498 kts
2026-05-04 16:37 41.73589 4.67377 35956 ft 506 kts 18°
2026-05-04 16:38 41.79827 4.71886 35948 ft 512 kts 27°
2026-05-04 16:39 41.95094 4.84174 35948 ft 511 kts 27°
2026-05-04 16:40 42.07276 4.94019 35944 ft 510 kts 27°
2026-05-04 16:41 42.22414 5.06350 35958 ft 508 kts 27°
2026-05-04 16:43 42.37528 5.18705 35974 ft 507 kts 27°
2026-05-04 16:43 42.46590 5.26144 35977 ft 507 kts 28°
2026-05-04 16:45 42.64658 5.41068 35970 ft 507 kts 27°
2026-05-04 16:46 42.79705 5.53587 35982 ft 507 kts 27°
2026-05-04 16:47 42.91727 5.63632 36023 ft 507 kts 28°
2026-05-04 16:48 43.03706 5.73687 35997 ft 504 kts 28°
2026-05-04 16:49 43.15637 5.83745 36039 ft 503 kts 28°
2026-05-04 16:50 43.27541 5.93833 36040 ft 502 kts 28°
2026-05-04 16:51 43.36516 6.01289 36045 ft 498 kts 21°
2026-05-04 16:51 43.42968 6.04223 36050 ft 485 kts
2026-05-04 16:52 43.49620 6.05066 36051 ft 478 kts 358°
2026-05-04 16:53 43.59568 6.06060 36043 ft 478 kts 358°
2026-05-04 16:54 43.72811 6.07412 36054 ft 477 kts 359°
2026-05-04 16:55 43.85514 6.13522 36031 ft 492 kts 22°
2026-05-04 16:55 43.91651 6.17713 36049 ft 492 kts 22°
2026-05-04 16:56 44.06975 6.28218 36060 ft 491 kts 22°
2026-05-04 16:57 44.16122 6.34504 36053 ft 490 kts 22°
2026-05-04 16:58 44.28334 6.42936 36071 ft 490 kts 22°
2026-05-04 17:00 44.46604 6.55634 36094 ft 488 kts 23°
2026-05-04 17:01 44.61816 6.66247 36108 ft 487 kts 23°
2026-05-04 17:02 44.73903 6.74749 36118 ft 487 kts 23°
2026-05-04 17:02 44.80214 6.77733 36136 ft 471 kts 358°
2026-05-04 17:03 44.83455 6.77615 36131 ft 463 kts 349°
2026-05-04 17:03 44.93076 6.76215 36121 ft 464 kts 348°
2026-05-04 17:04 45.05921 6.74270 36119 ft 465 kts 350°
2026-05-04 17:05 45.18920 6.73760 36130 ft 467 kts 354°
2026-05-04 17:06 45.28604 6.73527 36124 ft 466 kts 353°
2026-05-04 17:07 45.37251 6.73146 36103 ft 465 kts 353°
2026-05-04 17:07 45.44820 6.72821 36105 ft 465 kts 353°
2026-05-04 17:08 45.54476 6.72444 36091 ft 465 kts 353°
2026-05-04 17:09 45.60965 6.72191 36071 ft 465 kts 353°
2026-05-04 17:09 45.67430 6.71942 36062 ft 466 kts 353°
2026-05-04 17:10 45.83642 6.71296 36049 ft 465 kts 353°
2026-05-04 17:11 45.90091 6.71026 36044 ft 466 kts 353°
2026-05-04 17:12 45.99839 6.70625 36041 ft 468 kts 353°
2026-05-04 17:13 46.15937 6.68541 36028 ft 457 kts 336°
2026-05-04 17:14 46.28012 6.62639 36030 ft 459 kts 336°
2026-05-04 17:15 46.37115 6.58215 36038 ft 459 kts 336°
2026-05-04 17:16 46.49224 6.52277 36037 ft 460 kts 336°
2026-05-04 17:17 46.61333 6.46311 36060 ft 461 kts 336°
2026-05-04 17:18 46.73464 6.40307 36035 ft 462 kts 336°
2026-05-04 17:19 46.84671 6.34749 36028 ft 463 kts 336°
2026-05-04 17:20 46.96850 6.28669 36027 ft 464 kts 336°
2026-05-04 17:20 47.06016 6.24038 36026 ft 463 kts 333°
2026-05-04 17:21 47.17540 6.15835 36040 ft 461 kts 329°
2026-05-04 17:22 47.23285 6.11696 36035 ft 461 kts 329°
2026-05-04 17:23 47.35091 6.04113 36015 ft 470 kts 344°
2026-05-04 17:23 47.41632 6.03420 36011 ft 477 kts 358°
2026-05-04 17:24 47.44956 6.03498 36011 ft 477 kts 358°
2026-05-04 17:25 47.58242 6.03765 36013 ft 478 kts 358°
2026-05-04 17:26 47.71528 6.04075 36013 ft 478 kts 358°
2026-05-04 17:27 47.88153 6.04566 36017 ft 478 kts 359°
2026-05-04 17:28 48.01448 6.05003 36013 ft 478 kts 358°
2026-05-04 17:29 48.21389 6.05623 35997 ft 479 kts 358°
2026-05-04 17:31 48.38029 6.06195 35994 ft 480 kts 359°
2026-05-04 17:32 48.54705 6.07025 35993 ft 480 kts 359°
2026-05-04 17:33 48.68046 6.07653 36010 ft 481 kts 359°
2026-05-04 17:34 48.81455 6.08288 36006 ft 481 kts 359°
2026-05-04 17:35 48.98158 6.09088 36012 ft 482 kts 359°
2026-05-04 17:36 49.04859 6.09420 36009 ft 482 kts 359°
2026-05-04 17:36 49.11569 6.09740 36007 ft 482 kts 359°
2026-05-04 17:37 49.18282 6.10063 36005 ft 482 kts 359°
2026-05-04 17:37 49.25001 6.10386 36002 ft 482 kts 359°
2026-05-04 17:38 49.31668 6.10705 35994 ft 482 kts 359°
2026-05-04 17:38 49.38378 6.11043 36000 ft 483 kts 359°
2026-05-04 17:39 49.48446 6.11545 35987 ft 483 kts 359°
2026-05-04 17:39 49.55171 6.11821 35982 ft 483 kts 359°
2026-05-04 17:40 49.61897 6.12055 35984 ft 483 kts 359°
2026-05-04 17:40 49.68606 6.12297 35985 ft 482 kts 359°
2026-05-04 17:41 49.75276 6.12555 35989 ft 482 kts 359°
2026-05-04 17:41 49.81987 6.12828 36004 ft 482 kts 359°
2026-05-04 17:42 49.88709 6.13067 36006 ft 482 kts 358°
2026-05-04 17:42 49.95398 6.13112 36005 ft 482 kts 357°
2026-05-04 17:43 50.02095 6.13082 35995 ft 482 kts 357°
2026-05-04 17:43 50.08813 6.13085 35568 ft 481 kts 357°
2026-05-04 17:44 50.12162 6.13105 34895 ft 482 kts 357°
2026-05-04 17:44 50.15526 6.13132 34187 ft 484 kts 357°
2026-05-04 17:44 50.18905 6.13160 33373 ft 487 kts 357°
2026-05-04 17:44 50.22303 6.13183 32524 ft 490 kts 357°
2026-05-04 17:45 50.25689 6.13369 31686 ft 496 kts
2026-05-04 17:45 50.29097 6.14356 30853 ft 501 kts 14°
2026-05-04 17:45 50.32386 6.16212 30011 ft 505 kts 25°
2026-05-04 17:45 50.35460 6.18895 29054 ft 507 kts 34°
2026-05-04 17:46 50.38403 6.21932 28196 ft 507 kts 34°
2026-05-04 17:46 50.41355 6.24973 27384 ft 506 kts 33°
2026-05-04 17:46 50.44290 6.27992 26742 ft 501 kts 33°
2026-05-04 17:46 50.47180 6.30968 26190 ft 494 kts 33°
2026-05-04 17:47 50.50036 6.33903 25645 ft 487 kts 32°
2026-05-04 17:47 50.52887 6.36697 25087 ft 480 kts 31°
2026-05-04 17:47 50.55740 6.39340 24524 ft 473 kts 29°
2026-05-04 17:47 50.58589 6.41888 24008 ft 466 kts 28°
2026-05-04 17:48 50.61399 6.44375 23469 ft 460 kts 28°
2026-05-04 17:48 50.64168 6.46842 22803 ft 454 kts 29°
2026-05-04 17:48 50.66894 6.49312 22167 ft 449 kts 30°
2026-05-04 17:48 50.69576 6.51784 21524 ft 444 kts 30°
2026-05-04 17:49 50.72223 6.54253 20881 ft 440 kts 30°
2026-05-04 17:49 50.74806 6.56678 20218 ft 436 kts 31°
2026-05-04 17:49 50.77415 6.59132 19581 ft 432 kts 31°
2026-05-04 17:49 50.79984 6.61524 18971 ft 427 kts 28°
2026-05-04 17:50 50.82695 6.63372 18397 ft 423 kts 17°
2026-05-04 17:50 50.85552 6.64368 17736 ft 418 kts
2026-05-04 17:50 50.88430 6.64967 17054 ft 415 kts
2026-05-04 17:50 50.91281 6.65574 16404 ft 412 kts
2026-05-04 17:51 50.94108 6.66181 15774 ft 409 kts
2026-05-04 17:51 50.96917 6.66786 15353 ft 401 kts
2026-05-04 17:51 50.99629 6.67374 15195 ft 387 kts
2026-05-04 17:51 51.02240 6.68517 14292 ft 395 kts 26°
2026-05-04 17:52 51.04481 6.71006 13600 ft 394 kts 45°
2026-05-04 17:52 51.06384 6.74133 12905 ft 393 kts 48°
2026-05-04 17:52 51.08226 6.77256 12325 ft 390 kts 48°
2026-05-04 17:52 51.10083 6.80413 11742 ft 386 kts 48°
2026-05-04 17:53 51.11873 6.83461 11480 ft 375 kts 48°
2026-05-04 17:53 51.13624 6.86438 11351 ft 360 kts 48°
2026-05-04 17:53 51.15305 6.89307 11227 ft 346 kts 48°
2026-05-04 17:53 51.16916 6.92065 11093 ft 334 kts 49°
2026-05-04 17:54 51.18479 6.94737 10969 ft 328 kts 48°
2026-05-04 17:54 51.20070 6.97457 10813 ft 335 kts 48°
2026-05-04 17:54 51.21612 7.00088 10642 ft 315 kts 48°
2026-05-04 17:54 51.23079 7.02593 10483 ft 305 kts 48°
2026-05-04 17:55 51.24521 7.05054 10195 ft 302 kts 48°
2026-05-04 17:55 51.25949 7.07494 9856 ft 300 kts 48°
2026-05-04 17:55 51.27364 7.09911 9334 ft 295 kts 48°
2026-05-04 17:55 51.28762 7.12302 8527 ft 294 kts 48°
2026-05-04 17:56 51.30158 7.14698 7917 ft 295 kts 48°
2026-05-04 17:56 51.31555 7.17096 7547 ft 294 kts 49°
2026-05-04 17:56 51.32911 7.19435 7367 ft 286 kts 48°
2026-05-04 17:56 51.34239 7.21740 7224 ft 276 kts 49°
2026-05-04 17:57 51.35527 7.23919 7111 ft 266 kts 41°
2026-05-04 17:57 51.37110 7.25278 6953 ft 256 kts 11°
2026-05-04 17:57 51.38844 7.25233 6684 ft 247 kts 341°
2026-05-04 17:57 51.40309 7.23901 6246 ft 241 kts 317°
2026-05-04 17:58 51.41563 7.22117 5789 ft 242 kts 314°
2026-05-04 17:58 51.42787 7.20295 5506 ft 236 kts 313°
2026-05-04 17:58 51.43951 7.18533 5365 ft 225 kts 312°
2026-05-04 17:58 51.44759 7.16490 5114 ft 214 kts 281°
2026-05-04 17:59 51.44871 7.14160 4827 ft 210 kts 265°
2026-05-04 17:59 51.44794 7.11869 4584 ft 207 kts 258°
2026-05-04 17:59 51.43453 7.07935 4031 ft 203 kts 231°
2026-05-04 18:00 51.42608 7.06139 3795 ft 200 kts 231°
2026-05-04 18:00 51.41800 7.04421 3676 ft 186 kts 231°
2026-05-04 18:00 51.41032 7.02790 3359 ft 182 kts 231°
2026-05-04 18:00 51.40274 7.01184 3062 ft 182 kts 231°
2026-05-04 18:01 51.39510 6.99563 3040 ft 183 kts 231°
2026-05-04 18:01 51.38742 6.97936 3038 ft 184 kts 231°
2026-05-04 18:01 51.37967 6.96295 2911 ft 184 kts 231°
2026-05-04 18:02 51.36420 6.93024 2478 ft 183 kts 231°
2026-05-04 18:02 51.35661 6.91418 2224 ft 180 kts 230°
2026-05-04 18:02 51.34907 6.89827 1992 ft 178 kts 231°
2026-05-04 18:02 51.34190 6.88311 1785 ft 159 kts 231°
2026-05-04 18:03 51.33557 6.86973 1554 ft 145 kts 229°
2026-05-04 18:03 51.32964 6.85725 1359 ft 139 kts 229°
2026-05-04 18:03 51.32388 6.84503 1146 ft 138 kts 227°
2026-05-04 18:03 51.31812 6.83290 901 ft 137 kts 228°
2026-05-04 18:04 51.31235 6.82066 734 ft 139 kts 229°
2026-05-04 18:04 51.30642 6.80825 582 ft 141 kts 229°
2026-05-04 18:04 51.29433 6.78296 207 ft 147 kts 229°
2026-05-04 18:05 51.28854 6.77076 129 ft 127 kts 231°
2026-05-04 18:05 51.28465 6.76259 128 ft 54 kts 233°
2026-05-04 18:05 51.28263 6.76040 123 ft 31 kts 172°
2026-05-04 18:05 51.28221 6.76064 126 ft 0 kts 155°
2026-05-04 18:07 51.28220 6.76064 126 ft 1 kts 155°
2026-05-04 18:07 51.28216 6.76067 124 ft 0 kts 154°
2026-05-04 18:08 51.28178 6.76086 128 ft 8 kts 182°
2026-05-04 18:08 51.28134 6.76040 127 ft 8 kts 214°
2026-05-04 18:09 51.27941 6.76048 126 ft 16 kts 180°
2026-05-04 18:09 51.27840 6.76170 128 ft 11 kts 91°
2026-05-04 18:10 51.27840 6.76247 129 ft 10 kts 90°
2026-05-04 18:10 51.27846 6.76343 127 ft 6 kts 65°
2026-05-04 18:10 51.27860 6.76374 129 ft 2 kts 49°
2026-05-04 18:10 51.27865 6.76382 128 ft 1 kts 47°
2026-05-04 18:11 51.27866 6.76384 128 ft 0 kts 47°
2026-05-04 18:11 51.27866 6.76385 128 ft 0 kts 47°
2026-05-04 18:11 51.27867 6.76385 128 ft 0 kts 47°